Location: Vihti�l�
(61.3833°N, 23.0667°E)
Time: 04:40:27
(UTC+00:00)

USA 290 - Pass Details

Date: 29 November 2020
Orbit: 399 x 412 km, 73.6° (Epoch: 27 December)

Event Time Altitude Azimuth Distance (km) Brightness Sun altitude
Exits shadow 06:07:44 - 309° (NW) 1,602 4.5 -6.6°
Reaches altitude 10° 06:08:01 10° 306° (NW) 1,502 4.4 -6.5°
Maximum altitude 06:10:44 24° 250° (WSW) 908 3.6 -6.3°
Drops below altitude 10° 06:13:24 10° 195° (SSW) 1,477 5.3 -6.0°
Sets 06:15:42 0° 181° (S) 2,349 6.6 -5.8°
